Mountain Home, ID

7:09 PM MDT on September 20, 2017 (GMT -0600)
Mountain Home Air Force Base

Weather History for KMUO - February, 2012

Change the Weather History Date:

Saturday, February 18, 2012

  Actual Average Record
Temperature  
Mean Temperature 32 °F 36 °F  
Max Temperature 40 °F 46 °F 66 °F (1977)
Min Temperature 24 °F 25 °F 2 °F (1942)
Degree Days  
Heating Degree Days 33 29  
Month to date heating degree days 537 562  
Cooling Degree Days 0 0  
Month to date cooling degree days 0 0  
Moisture  
Dew Point 30 °F    
Average Humidity 79    
Maximum Humidity 100    
Minimum Humidity 60    
Precipitation  
Precipitation 0.05 in 0.03 in 0.66 in (1927)
Month to date precipitation 0.10 0.52  
Sea Level Pressure  
Sea Level Pressure 30.05 in    
Wind  
Wind Speed 16 mph (NNW)    
Max Wind Speed 25 mph    
Max Gust Speed 33 mph    
Visibility 9 miles    
Events Rain , Snow    
T = Trace of Precipitation, MM = Missing Value Source: NWS Daily Summary

Daily Weather History Graph

Daily Weather History Graph

Search for Another Location

Airport or City:

Trip Planner

Search our weather history database for the weather conditions in past years. The results will help you decide how hot, cold, wet, or windy it might be!

Date:

Astronomy

Feb. 18, 2012 Rise Set
Actual Time 7:37 AM MST 6:18 PM MST
Civil Twilight 7:08 AM MST 6:47 PM MST
Nautical Twilight 6:35 AM MST 7:20 PM MST
Astronomical Twilight 6:02 AM MST 7:53 PM MST
Moon 5:23 AM MST (2/18) 3:16 PM MST (2/18)
Length of Visible Light 11h 38m
Length of Day
10h 40m
Waning Crescent, 11% of the Moon is Illuminated
Feb 18
Waning Crescent
Feb 21
New
Feb 29
First Quarter
Mar 8
Full
Mar 14
Last Quarter

Hourly Weather History & Observations

Time (MST) Temp. Windchill Dew Point Humidity Pressure Visibility Wind Dir Wind Speed Gust Speed Precip Events Conditions
12:55 AM 37.8 °F 28.0 °F 25.2 °F 60% 30.08 in 10.0 mi East 18.4 mph - N/A   Scattered Clouds
1:55 AM 37.8 °F 28.3 °F 25.9 °F 62% 30.07 in 10.0 mi East 17.3 mph - N/A   Overcast
2:11 AM 37.4 °F 27.8 °F 26.6 °F 65% 30.06 in 10.0 mi East 17.3 mph - N/A   Overcast
2:55 AM 37.8 °F 28.3 °F 26.4 °F 64% 30.04 in 10.0 mi East 17.3 mph - N/A   Overcast
3:55 AM 37.9 °F 28.5 °F 26.1 °F 62% 30.02 in 10.0 mi East 17.3 mph - N/A   Overcast
4:55 AM 37.0 °F 27.0 °F 26.4 °F 65% 30.01 in 10.0 mi East 18.4 mph - N/A   Scattered Clouds
5:55 AM 37.6 °F 27.4 °F 27.1 °F 66% 30.01 in 10.0 mi East 19.6 mph - N/A   Overcast
6:55 AM 37.4 °F 28.9 °F 27.0 °F 66% 30.01 in 10.0 mi East 13.8 mph - N/A   Overcast
7:05 AM 37.4 °F 27.5 °F 26.6 °F 65% 30.01 in 10.0 mi East 18.4 mph - N/A   Overcast
7:38 AM 37.4 °F 29.3 °F 28.4 °F 70% 30.01 in 10.0 mi East 12.7 mph - N/A   Overcast
7:55 AM 37.4 °F 29.3 °F 27.5 °F 67% 30.01 in 10.0 mi East 12.7 mph - N/A   Overcast
8:13 AM 37.4 °F 29.8 °F 28.4 °F 70% 30.01 in 10.0 mi East 11.5 mph - N/A   Overcast
8:33 AM 37.4 °F 30.8 °F 28.4 °F 70% 30.01 in 10.0 mi East 9.2 mph - N/A   Overcast
8:55 AM 37.9 °F 30.9 °F 28.0 °F 68% 30.03 in 10.0 mi ESE 10.4 mph - N/A   Overcast
9:31 AM 39.2 °F 31.2 °F 28.4 °F 65% 30.05 in 10.0 mi NW 13.8 mph - N/A   Overcast
9:43 AM 39.2 °F 30.8 °F 30.2 °F 70% 30.02 in 10.0 mi WNW 15.0 mph 19.6 mph N/A   Light Drizzle
9:55 AM 39.6 °F 31.7 °F 32.9 °F 77% 30.06 in 10.0 mi NW 13.8 mph 19.6 mph N/A   Light Drizzle
10:07 AM 37.4 °F 26.9 °F 37.4 °F 100% 30.03 in 8.0 mi NW 20.7 mph - N/A Rain , Snow Light Rain
10:12 AM 37.4 °F 27.5 °F 37.4 °F 100% 30.08 in 4.0 mi NW 18.4 mph - N/A Snow Light Snow
10:55 AM 36.0 °F 23.9 °F 36.0 °F 100% 30.09 in 4.0 mi NNW 25.3 mph 33.4 mph 0.04 in Snow Light Snow
11:55 AM 36.7 °F 25.4 °F 36.7 °F 100% 30.08 in 6.0 mi NNW 23.0 mph 32.2 mph 0.01 in Rain , Snow Light Rain
12:16 PM 37.4 °F 27.8 °F 37.4 °F 100% 30.05 in 7.0 mi NW 17.3 mph - N/A   Overcast
12:26 PM 37.4 °F 27.8 °F 37.4 °F 100% 30.07 in 5.0 mi WNW 17.3 mph 24.2 mph N/A Snow Light Snow
12:55 PM 35.6 °F 25.5 °F 35.6 °F 100% 30.10 in 5.0 mi WNW 17.3 mph 24.2 mph 0.00 in Snow Light Snow
1:55 PM 36.1 °F 28.2 °F 36.1 °F 100% 30.07 in 10.0 mi WNW 11.5 mph - 0.00 in   Overcast
2:55 PM 37.8 °F 29.4 °F 34.9 °F 89% 30.06 in 10.0 mi West 13.8 mph - N/A   Overcast
3:29 PM 39.2 °F 32.0 °F 32.0 °F 75% 30.05 in 10.0 mi WNW 11.5 mph - N/A   Overcast
3:55 PM 39.0 °F 31.0 °F 28.8 °F 67% 30.04 in 10.0 mi WNW 13.8 mph - N/A   Overcast
4:55 PM 39.0 °F 31.8 °F 30.2 °F 71% 30.06 in 10.0 mi WSW 11.5 mph - N/A   Overcast
5:55 PM 37.0 °F 30.4 °F 29.7 °F 75% 30.06 in 10.0 mi SW 9.2 mph - N/A   Mostly Cloudy
6:55 PM 34.3 °F 27.0 °F 29.7 °F 83% 30.07 in 10.0 mi WSW 9.2 mph - N/A   Mostly Cloudy
7:55 PM 31.5 °F 24.2 °F 28.9 °F 90% 30.08 in 10.0 mi West 8.1 mph - N/A   Partly Cloudy
8:55 PM 28.4 °F 21.2 °F 28.4 °F 100% 30.09 in 10.0 mi WNW 6.9 mph - N/A   Mostly Cloudy
9:55 PM 29.1 °F 23.0 °F 26.2 °F 89% 30.08 in 10.0 mi NNW 5.8 mph - N/A   Mostly Cloudy
10:55 PM 26.4 °F 19.8 °F 24.8 °F 94% 30.09 in 10.0 mi NW 5.8 mph - N/A   Partly Cloudy
11:55 PM 25.0 °F 16.3 °F 23.5 °F 94% 30.10 in 10.0 mi NW 8.1 mph - N/A   Clear